Miscellaneous Local Product
Issued by NWS North Platte, NE

Home | Current Version | Previous Version | Text Only | Print | Product List | Glossary On
Versions: 1 2 3 4 5 6 7 8 9 10 11 12 13 14 15 16 17 18 19 20 21 22 23 24 25 26 27 28 29 30 31 32 33 34 35 36 37 38 39 40 41 42 43 44 45 46 47 48 49 50
000
AXUS43 KLBF 201110
MISLBF


WESTERN AND NORTH CENTRAL NEBRASKA HOURLY WEATHER ROUNDUP
NATIONAL WEATHER SERVICE NORTH PLATTE NE
500 AM CST MON NOV 20 2017

NOTE: "FAIR" INDICATES FEW OR NO CLOUDS BELOW 12,000 FEET WITH NO
SIGNIFICANT WEATHER AND/OR OBSTRUCTIONS TO VISIBILITY.

NOTE: STATIONS NOT REPORTING VARIABLES SUCH AS SKY/WEATHER OR
PRESSURE ARE PROVIDED BY RAWS AND APRS NETWORKS AND ARE NOT UNDER
NATIONAL WEATHER SERVICE QUALITY CONTROL.

...OBSERVATIONS IN AND NEAR THE EASTERN PANHANDLE OF NEBRASKA...

CITY           SKY/WX    TMP DP  RH WIND       PRES   REMARKS
PINE RIDGE     CLOUDY    36  15  42 SW3       29.71S
GORDON         FAIR      32  16  52 SW8       29.69S WCI  25
CHADRON        CLOUDY    29  18  63 S8        29.70F WCI  21
ALLIANCE       CLOUDY    40  13  33 W15       29.72F WCI  32
SIDNEY         CLOUDY    27  14  58 SW8       29.79F WCI  19
CRESCENT LAKE    N/A     45  10  23 W13G20      N/A
$$

...OBSERVATIONS IN NORTHERN NEBRASKA AND FAR SOUTHERN SOUTH DAKOTA...

CITY           SKY/WX    TMP DP  RH WIND       PRES   REMARKS
WINNER         FAIR      38  19  46 SW10      29.60F WCI  31
VALENTINE      CLOUDY    34  18  52 SW12      29.65F WCI  25
THEDFORD       CLOUDY    40  16  38 W14       29.71F WCI  32
AINSWORTH      CLOUDY    36  18  49 SW3       29.66F
O`NEILL        CLOUDY    32  22  67 SW8       29.66F WCI  25
ORD            CLOUDY    29  21  72 CALM      29.71S
BROKEN BOW     CLOUDY    32  20  61 W8        29.72F WCI  25
VALENTINE NWR    N/A     38  13  35 W12         N/A  WCI  30
HALSEY           N/A     38  13  36 W7          N/A  WCI  33
BUTTE            N/A     32  20  61 SW6         N/A  WCI  26
CHAMBERS         N/A     33  21  60 W7          N/A  WCI  27
EWING            N/A     32  25  74 SW3         N/A
$$

...OBSERVATIONS IN SOUTHWEST NEBRASKA AND FAR NORTHEAST COLORADO...

CITY           SKY/WX    TMP DP  RH WIND       PRES   REMARKS
HOLYOKE        FAIR      32  18  55 W10       29.80F WCI  24
IMPERIAL       CLOUDY    25  15  66 SW3       29.80F
OGALLALA       CLOUDY    28  21  77 W9        29.78F WCI  19
NORTH PLATTE   CLOUDY    19  15  84 NW6       29.78F WCI  11
MCCOOK         CLOUDY    27  21  78 W8        29.80F WCI  19
LEXINGTON      CLOUDY    29  21  72 SW3       29.77F
STAPLETON        N/A     32  17  52 CALM        N/A
GOTHENBURG       N/A     29  19  64 CALM        N/A
CALLAWAY         N/A     38  19  46 W12         N/A  WCI  30
$$

...OBSERVATIONS IN CENTRAL LINCOLN COUNTY AREA...

CITY           SKY/WX    TMP DP  RH WIND       PRES   REMARKS
N.P. AIRPORT   CLOUDY    19  15  84 NW6       29.78F WCI  11
N.P. DOWNTOWN    N/A     27  20  73 CALM        N/A
N.P. SOUTHEAST   N/A     29  18  62 CALM        N/A
N.P. HILLCREST   N/A     30  22  72 CALM        N/A
$$

...SOME OBSERVATIONS FROM AROUND THE REGION...

CITY           SKY/WX    TMP DP  RH WIND       PRES   REMARKS
DENVER         CLOUDY    41   5  22 SW10      29.87F
LIMON          CLOUDY    27  10  49 N5        29.89F WCI  22
ASPEN          CLOUDY    15   8  73 CALM      30.18S
LARAMIE        CLOUDY    33   8  35 SW18      29.96R WCI  22
CASPER         CLOUDY    39  12  33 SW26G37   29.83R WCI  28
CHEYENNE       CLOUDY    46   0  14 W24G33    29.87F
SCOTTSBLUFF    CLOUDY    42   8  24 W7        29.77F
GRAND ISLAND   CLEAR     36  27  69 SW13      29.76F WCI  27
OMAHA          CLOUDY    33  25  72 S10       29.81F WCI  25
SIOUX FALLS    CLOUDY    28  22  78 S5        29.64F WCI  23
PIERRE         CLOUDY    29  21  72 W6        29.57F WCI  23
RAPID CITY     CLOUDY    32  16  51 S3        29.60F
BISMARCK       CLOUDY    29  21  72 SE3       29.50F
KANSAS CITY    CLOUDY    45  27  49 SW16G24   29.96S
HILL CITY      CLOUDY    30  21  69 SW5       29.82F WCI  25
WICHITA        PTCLDY    36  26  67 S8        29.99S WCI  30
DODGE CITY     CLOUDY    31  16  54 S8        29.88F WCI  23
OKLAHOMA CITY  PTCLDY    36  27  69 S8        30.07F WCI  30
DALLAS         CLOUDY    42  32  67 CALM      30.15F
AMARILLO       CLOUDY    35  18  49 SW15      29.98F WCI  25
$$




USA.gov is the U.S. government's official web portal to all federal, state and local government web resources and services.